Location: Rowland
(34.5359°N, 79.2929°W)
Time: 19:50:06
(UTC+00:00)

Transit 2A Rocket - Pass Details

Date: 08 October 2022
Orbit: 589 x 911 km, 66.7° (Epoch: 03 December)

Event Time Altitude Azimuth Distance (km) Brightness Sun altitude
Rises 08:29:43 0° 180° (S) 2,864 - -34.9°
Reaches altitude 10° 08:32:14 10° 168° (SSE) 1,936 - -34.4°
Maximum altitude 08:35:53 27° 110° (ESE) 1,143 - -33.7°
Exits shadow 08:37:16 23° 78° (ENE) 1,284 6.8 -33.4°
Drops below altitude 10° 08:39:29 10° 52° (NE) 1,917 7.8 -32.9°
Sets 08:41:58 0° 40° (NE) 2,830 8.7 -32.5°
